NOAA 16 DEB, 41133

Orbit data source: Space-Track

NOAA 16 DEB, 41133 is space debris in SSO originally from a launch on Thu, 21 Sep 2000 UTC launched from the Air Force Western Test Range (AFWTR). Debris objects in space refer to the collection of defunct objects orbiting the Earth. Examples of debris include non-operational satellites, rocket bodies, and fragments generated from explosions, collisions, or faulty payload assembly.

Loading next visibility...
Identifier
41133, 2000-055BQ
Orbit
SSO
Country
Flag of USUS
Related business
Manufacturer
Unknown
Mission
Spacecraft
Bus & Motor
Unknown
Mass
Unknown
Launch date (UTC)
2000-09-21 (26 years ago)
Launch vehicle
Unknown
Launch site
Air Force Western Test Range (AFWTR)
Object type
Payload
Rocket body
Debris
Shape & HBR
Unknown shape, 0.1 m
Radar Cross Section
Small (<0.1 m²)

Expand to show TLE details & history
Last TLE update: 17 hours ago

TLE from 17 hours ago
0 NOAA 16 DEB
1 41133U 00055BQ  26126.42441413  .00020496  00000-0  36957-2 0  9995
2 41133  98.9180 300.6172 0005002 164.0837 196.0522 14.66524044540352
Epoch: 2026-05-06T10:11Z
TLE epoch observation values (Epoch: 2026-05-06T10:11:09.380Z)
Latitude
-0.00009°
Longitude
-76.45697°
Altitude
678.547 km
Speed
7.516 km/s
True Right ascension
20h 02m 28s
True Declination
0° 00' 00"
Sunlit
Object was in daylight at epoch
Visualization orbit readout
Latitude
Unknown
Longitude
Unknown
Altitude
Unknown
Speed
Unknown
Apparent Right ascension
Unknown
Apparent Declination
Unknown
Sunlit
N/A
Visualization observer readout
Local Sidereal Time
11:02:25
Azimuth
Unknown
Elevation
Unknown
Doppler factor
Unknown
Orbital elements
Apogee altitude
672.819 km
Perigee altitude
665.768 km
Semi-major axis
7,047.431 km
Eccentricity
0.0005
Inclination
98.918°
RAAN
300.6172°
Arg. of periapsis
164.0837°
True anomaly
196.03636°
Mean anomaly
196.0522°
Eccentric anomaly
196.04428°
Mean motion
3.66857 °/min
Orbital period
98.13 mins
BSTAR
0.0036957
Loading maneuver chart data...
Computing Atmospheric mass density...
Loading historical data...
Loading historical data...
Loading historical data...
Loading historical data...
Loading historical data...
Loading historical data...
Loading historical data...

Documentation

Showing up to 5 results
|